Location: Bailleul
(50.3375°N, 2.8513°E)
Time: 03:34:13
(UTC+00:00)

Cosmos 1980 - Pass Details

Date: 30 October 2021
Orbit: 839 x 847 km, 71.0° (Epoch: 01 December)

Event Time Altitude Azimuth Distance (km) Brightness Sun altitude
Rises 18:34:36 0° 176° (S) 3,378 6.8 -20.7°
Reaches altitude 10° 18:37:15 10° 167° (SSE) 2,449 5.9 -21.1°
Enters shadow 18:39:08 19° 154° (SSE) 1,873 5.2 -21.4°
